Date String (YYYY-MM-DD hh:mm:ss) UTC,Instrument flags,Ambient pressure (hPa),Sample flow (lpm),Bypass flow (lpm),Sample temperature (°C),Ambient temperature (°C),ASC tube jacket temperature (°C),LED temperature (°C),Box temperature (°C),Sample RH (%),Span deviation,Mass concentration (μg/m³),Mass concentration (μg/m³),Mass concentration (μg/m³)
DateTimeUTC,F1_M11,P_M11,Q1_M11,Q2_M11,T1_M11,T2_M11,T3_M11,T4_M11,T5_M11,U1_M11,ZSPAN_M11,X0_M11,X2_M11,X1_M11
2022-11-06 10:00:00,,0818.1,5.00,0.00,23.2,21.6,00.0,32.2,25.1,16.5,0000.0,0006.47,0001.19,0000.63
2022-11-06 10:01:00,,0818.1,5.00,0.00,23.2,21.5,00.0,32.1,25.0,16.5,0000.0,0006.37,0001.17,0000.64
2022-11-06 10:02:00,,0818.2,5.00,0.00,23.2,21.5,00.0,32.1,25.0,16.5,0000.0,0006.48,0001.15,0000.65
2022-11-06 10:03:00,,0818.2,5.00,0.00,23.2,21.5,00.0,32.1,25.0,16.5,0000.0,0006.98,0001.13,0000.66
2022-11-06 10:04:00,,0818.2,5.00,0.00,23.2,21.4,00.0,32.1,25.0,16.5,0000.0,0007.18,0001.16,0000.67
2022-11-06 10:05:00,,0818.1,5.01,0.00,23.2,21.4,00.0,32.1,25.0,16.5,0000.0,0007.17,0001.20,0000.68
2022-11-06 10:06:00,,0818.1,5.01,0.00,23.1,21.4,00.0,32.1,25.0,16.5,0000.0,0006.86,0001.20,0000.69
2022-11-06 10:07:00,,0818.2,4.98,0.00,23.1,21.4,00.0,32.1,24.9,16.6,0000.0,0006.15,0001.26,0000.70
2022-11-06 10:08:00,,0818.2,5.01,0.00,23.1,21.4,00.0,32.0,24.9,16.6,0000.0,0006.03,0001.28,0000.70
2022-11-06 10:09:00,,0818.2,5.01,0.00,23.1,21.3,00.0,32.0,24.9,16.5,0000.0,0005.84,0001.33,0000.70
2022-11-06 10:10:00,,0818.2,5.00,0.00,23.1,21.2,00.0,32.0,24.8,16.5,0000.0,0004.67,0001.40,0000.70
2022-11-06 10:11:00,,0818.2,5.00,0.00,23.0,21.1,00.0,32.0,24.8,16.4,0000.0,0004.22,0001.42,0000.70
2022-11-06 10:12:00,,0818.2,5.00,0.00,23.0,21.1,00.0,32.0,24.8,16.5,0000.0,0004.38,0001.42,0000.70
2022-11-06 10:13:00,,0818.2,5.00,0.00,23.0,21.1,00.0,32.0,24.8,16.5,0000.0,0004.40,0001.43,0000.70
2022-11-06 10:14:00,,0818.2,5.00,0.00,23.0,21.1,00.0,31.9,24.8,16.5,0000.0,0003.83,0001.41,0000.70
2022-11-06 10:15:00,,0818.3,5.00,0.00,22.9,21.2,00.0,31.9,24.8,16.5,0000.0,0003.58,0001.35,0000.70
2022-11-06 10:16:00,,0818.4,5.01,0.00,22.9,21.2,00.0,31.9,24.8,16.6,0000.0,0003.47,0001.32,0000.69
2022-11-06 10:17:00,,0818.4,5.00,0.00,22.9,21.3,00.0,31.9,24.8,16.6,0000.0,0003.66,0001.35,0000.70
2022-11-06 10:18:00,,0818.4,5.00,0.00,22.9,21.3,00.0,31.9,24.8,16.6,0000.0,0003.56,0001.34,0000.71
2022-11-06 10:19:00,,0818.4,4.98,0.00,23.0,21.3,00.0,31.9,24.8,16.7,0000.0,0003.82,0001.34,0000.71
2022-11-06 10:20:00,,0818.4,5.01,0.00,23.0,21.4,00.0,31.8,24.9,16.7,0000.0,0003.93,0001.26,0000.71
2022-11-06 10:21:00,,0818.4,5.01,0.00,23.0,21.4,00.0,31.8,24.8,16.7,0000.0,0004.01,0001.23,0000.73
2022-11-06 10:22:00,,0818.4,4.99,0.00,22.9,21.4,00.0,31.8,24.8,16.7,0000.0,0003.89,0001.22,0000.74
2022-11-06 10:23:00,,0818.4,5.00,0.00,23.0,21.4,00.0,31.8,24.9,16.8,0000.0,0003.74,0001.22,0000.75
2022-11-06 10:24:00,,0818.4,5.00,0.00,23.0,21.5,00.0,31.8,24.9,16.8,0000.0,0003.88,0001.27,0000.77
2022-11-06 10:25:00,,0818.3,5.01,0.00,23.0,21.5,00.0,31.8,24.9,16.8,0000.0,0004.93,0001.35,0000.80
2022-11-06 10:26:00,,0818.3,5.01,0.00,23.0,21.6,00.0,31.8,24.9,16.8,0000.0,0005.17,0001.41,0000.80
2022-11-06 10:27:00,,0818.3,5.00,0.00,23.0,21.6,00.0,31.8,24.9,16.8,0000.0,0005.22,0001.42,0000.81
2022-11-06 10:28:00,,0818.4,4.98,0.00,23.0,21.7,00.0,31.8,24.9,16.8,0000.0,0005.50,0001.44,0000.81
2022-11-06 10:29:00,,0818.3,5.00,0.00,23.0,21.7,00.0,31.8,25.0,16.8,0000.0,0006.20,0001.42,0000.82
2022-11-06 10:30:00,,0818.2,5.01,0.00,23.1,21.8,00.0,31.8,25.0,16.8,0000.0,0006.29,0001.40,0000.82
2022-11-06 10:31:00,,0818.3,5.00,0.00,23.1,21.8,00.0,31.8,25.0,16.8,0000.0,0007.82,0001.52,0000.82
2022-11-06 10:32:00,,0818.4,4.99,0.00,23.1,21.7,00.0,31.8,25.0,16.8,0000.0,0007.89,0001.58,0000.83
2022-11-06 10:33:00,,0818.4,4.99,0.00,23.1,21.6,00.0,31.8,25.0,16.8,0000.0,0007.91,0001.60,0000.83
2022-11-06 10:34:00,,0818.4,5.00,0.00,23.1,21.6,00.0,31.8,25.0,16.8,0000.0,0008.02,0001.67,0000.84
2022-11-06 10:35:00,,0818.4,5.00,0.00,23.1,21.7,00.0,31.8,25.0,16.8,0000.0,0007.88,0001.66,0000.84
2022-11-06 10:36:00,,0818.4,5.00,0.00,23.1,21.7,00.0,31.9,25.0,16.7,0000.0,0007.39,0001.64,0000.83
2022-11-06 10:37:00,,0818.4,5.00,0.00,23.1,21.8,00.0,31.9,25.0,16.8,0000.0,0007.31,0001.66,0000.83
2022-11-06 10:38:00,,0818.4,5.00,0.00,23.1,21.8,00.0,31.9,25.0,16.8,0000.0,0007.86,0001.70,0000.83
2022-11-06 10:39:00,,0818.4,5.00,0.00,23.1,21.8,00.0,31.9,25.0,16.7,0000.0,0007.95,0001.70,0000.83
2022-11-06 10:40:00,,0818.4,5.00,0.00,23.1,21.9,00.0,31.9,25.0,16.6,0000.0,0007.58,0001.72,0000.82
2022-11-06 10:41:00,,0818.4,5.00,0.00,23.1,21.9,00.0,31.9,25.0,16.5,0000.0,0007.63,0001.71,0000.82
2022-11-06 10:42:00,,0818.4,5.00,0.00,23.1,21.8,00.0,31.9,25.0,16.5,0000.0,0006.09,0001.66,0000.82
2022-11-06 10:43:00,,0818.4,5.00,0.00,23.1,21.7,00.0,31.9,25.0,16.5,0000.0,0006.66,0001.60,0000.81
2022-11-06 10:44:00,,0818.4,5.00,0.00,23.1,21.7,00.0,31.9,25.0,16.5,0000.0,0007.94,0001.60,0000.81
2022-11-06 10:45:00,,0818.5,5.01,0.00,23.1,21.7,00.0,31.9,25.0,16.5,0000.0,0008.28,0001.56,0000.81
2022-11-06 10:46:00,,0818.5,5.00,0.00,23.1,21.6,00.0,31.9,25.0,16.4,0000.0,0008.27,0001.55,0000.81
2022-11-06 10:47:00,,0818.5,4.99,0.00,23.1,21.6,00.0,31.9,25.0,16.4,0000.0,0008.38,0001.60,0000.82
2022-11-06 10:48:00,,0818.5,5.00,0.00,23.1,21.6,00.0,31.9,25.0,16.4,0000.0,0008.45,0001.63,0000.84
2022-11-06 10:49:00,,0818.5,5.01,0.00,23.1,21.5,00.0,31.9,25.0,16.5,0000.0,0008.17,0001.59,0000.85
2022-11-06 10:50:00,,0818.4,5.01,0.00,23.1,21.5,00.0,31.9,25.0,16.5,0000.0,0008.21,0001.56,0000.87
2022-11-06 10:51:00,,0818.4,5.01,0.00,23.1,21.5,00.0,31.9,25.0,16.4,0000.0,0008.21,0001.51,0000.87
2022-11-06 10:52:00,,0818.4,4.97,0.00,23.1,21.5,00.0,31.9,25.0,16.3,0000.0,0008.44,0001.52,0000.88
2022-11-06 10:53:00,,0818.4,5.02,0.00,23.1,21.5,00.0,31.9,25.0,16.3,0000.0,0008.61,0001.51,0000.89
2022-11-06 10:54:00,,0818.4,4.99,0.00,23.1,21.5,00.0,31.9,24.9,16.4,0000.0,0008.27,0001.49,0000.91
2022-11-06 10:55:00,,0818.5,5.00,0.00,23.0,21.4,00.0,31.8,24.9,16.4,0000.0,0007.13,0001.48,0000.93
2022-11-06 10:56:00,,0818.5,5.01,0.00,23.0,21.4,00.0,31.8,24.9,16.4,0000.0,0006.16,0001.51,0000.95
2022-11-06 10:57:00,,0818.5,5.00,0.00,23.0,21.4,00.0,31.8,24.9,16.4,0000.0,0006.24,0001.56,0000.96
2022-11-06 10:58:00,,0818.5,4.99,0.00,23.0,21.3,00.0,31.8,24.9,16.4,0000.0,0007.63,0001.53,0000.97
2022-11-06 10:59:00,,0818.5,5.00,0.00,23.0,21.3,00.0,31.8,24.9,16.4,0000.0,0008.12,0001.52,0000.98
